SCP
0 0 0 0 0 0 0 0 0 0 0 0 0 0 0 0 0 0 0 0 0 0 0 0 0 0 0 0 0 0 0 0 0 0 0 0 0 0 0 0 0 0 0
0 0 0 0 0 0 0 0 0 0 0 0 0 0 0 0 0 0 0 0 0 0 0 0 0 0 0 0 0 0 0 0 0 0 0 0 0 0 0 0 0 0 0
0 0 0 0 0 0 0 0 0 0 0 0 0 0 0 0 0 0 0 0 0 0 0 0 0 0 0 0 0 0 0 0 0 0 0 0 0 0 0 0 0 0 0
0 0 0 0 0 0 0 0 0 0 0 0 0 0 0 0 0 0 0 0 0 0 0 0 0 0 0 0 0 0 0 0 0 0 0 0 0 0 0 0 0 0 0
0 0 0 0 0 0 0 0 0 0 0 0 0 0 0 0 0 0 0 0 0 0 0 0 0 0 0 0 0 0 0 0 0 0 0 0 0 0 0 0 0 0 0
0 0 0 0 0 0 0 0 0 0 0 0 0 0 0 0 0 0 0 0 0 0 0 0 0 0 0 0 0 0 0 0 0 0 0 0 0 0 0 0 0 0 0
0 0 0 0 0 0 0 0 0 0 0 0 0 0 0 0 0 0 0 0 0 0 0 0 0 0 0 0 0 0 0 0 0 0 0 0 0 0 0 0 0 0 0
0 0 0 0 0 0 0 0 0 0 0 0 0 0 0 0 0 0 0 0 0 0 0 0 0 0 0 0 0 0 0 0 0 0 0 0 0 0 0 0 0 0 0
0 0 0 0 0 0 0 0 0 0 0 0 0 0 0 0 0 0 0 0 0 0 0 0 0 0 0 0 0 0 0 0 0 0 0 0 0 0 0 0 0 0 0
0 0 0 0 0 0 0 0 0 0 0 0 0 0 0 0 0 0 0 0 0 0 0 0 0 0 0 0 0 0 0 0 0 0 0 0 0 0 0 0 0 0 0
0 0 0 0 0 0 0 0 0 0 0 0 0 0 0 0 0 0 0 0 0 0 0 0 0 0 0 0 0 0 0 0 0 0 0 0 0 0 0 0 0 0 0
0 0 0 0 0 0 0 0 0 0 0 0 0 0 0 0 0 0 0 0 0 0 0 0 0 0 0 0 0 0 0 0 0 0 0 0 0 0 0 0 0 0 0
0 0 0 0 0 0 0 0 0 0 0 0 0 0 0 0 0 0 0 0 0 0 0 0 0 0 0 0 0 0 0 0 0 0 0 0 0 0 0 0 0 0 0
0 0 0 0 0 0 0 0 0 0 0 0 0 0 0 0 0 0 0 0 0 0 0 0 0 0 0 0 0 0 0 0 0 0 0 0 0 0 0 0 0 0 0
0 0 0 0 0 0 0 0 0 0 0 0 0 0 0 0 0 0 0 0 0 0 0 0 0 0 0 0 0 0 0 0 0 0 0 0 0 0 0 0 0 0 0
0 0 0 0 0 0 0 0 0 0 0 0 0 0 0 0 0 0 0 0 0 0 0 0 0 0 0 0 0 0 0 0 0 0 0 0 0 0 0 0 0 0 0
0 0 0 0 0 0 0 0 0 0 0 0 0 0 0 0 0 0 0 0 0 0 0 0 0 0 0 0 0 0 0 0 0 0 0 0 0 0 0 0 0 0 0
0 0 0 0 0 0 0 0 0 0 0 0 0 0 0 0 0 0 0 0 0 0 0 0 0 0 0 0 0 0 0 0 0 0 0 0 0 0 0 0 0 0 0
0 0 0 0 0 0 0 0 0 0 0 0 0 0 0 0 0 0 0 0 0 0 0 0 0 0 0 0 0 0 0 0 0 0 0 0 0 0 0 0 0 0 0
0 0 0 0 0 0 0 0 0 0 0 0 0 0 0 0 0 0 0 0 0 0 0 0 0 0 0 0 0 0 0 0 0 0 0 0 0 0 0 0 0 0 0
0 0 0 0 0 0 0 0 0 0 0 0 0 0 0 0 0 0 0 0 0 0 0 0 0 0 0 0 0 0 0 0 0 0 0 0 0 0 0 0 0 0 0
0 0 0 0 0 0 0 0 0 0 0 0 0 0 0 0 0 0 0 0 0 0 0 0 0 0 0 0 0 0 0 0 0 0 0 0 0 0 0 0 0 0 0
0 0 0 0 0 0 0 0 0 0 0 0 0 0 0 0 0 0 0 0 0 0 0 0 0 0 0 0 0 0 0 0 0 0 0 0 0 0 0 0 0 0 0
0 0 0 0 0 0 0 0 0 0 0 0 0 0 0 0 0 0 0 0 0 0 0 0 0 0 0 0 0 0 0 0 0 0 0 0 0 0 0 0 0 0 0
0 0 0 0 0 0 0 0 0 0 0 0 0 0 0 0 0 0 0 0 0 0 0 0 0 0 0 0 0 0 0 0 0 0 0 0 0 0 0 0 0 0 0
0 0 0 0 0 0 0 0 0 0 0 0 0 0 0 0 0 0 0 0 0 0 0 0 0 0 0 0 0 0 0 0 0 0 0 0 0 0 0 0 0 0 0
Wind_Speed_500mb
16 9 6 4 3 6 10 15 20 24 25 26 27 28 29 31 33 34 34 34 35 36 38 39 40 41 42 42 43 45 47 51 67 88 84 86 85 88 87 85 86 82 85
28 21 10 7 10 10 14 20 23 26 26 27 29 31 31 31 30 30 31 32 33 34 35 36 38 40 42 44 45 44 45 46 54 85 84 91 85 85 91 86 79 71 73
21 16 16 13 9 13 19 24 24 24 25 27 28 28 27 27 28 29 30 32 34 34 35 37 39 41 41 41 42 41 41 45 53 67 90 94 85 95 94 93 85 79 80
23 18 15 11 13 17 21 22 24 25 25 25 25 25 24 25 26 28 30 32 31 32 33 35 37 40 42 46 43 41 43 50 55 66 77 84 82 85 77 88 100 88 88
22 20 16 14 15 20 22 23 23 23 24 23 23 24 25 26 26 30 31 30 29 30 31 34 36 40 46 51 49 49 51 56 63 65 74 84 82 85 82 92 92 98 103
24 21 15 16 20 22 23 22 21 22 22 23 25 26 27 28 30 30 30 30 30 32 33 37 43 47 52 56 55 53 57 60 60 64 75 78 85 88 92 91 95 102 77
25 19 18 21 24 24 22 21 22 22 24 25 27 28 30 30 30 30 30 30 30 33 39 45 47 48 55 58 54 60 59 51 50 59 67 71 87 89 95 100 98 96 104
24 20 24 26 24 23 22 23 23 24 26 28 30 30 30 30 32 32 32 30 31 36 40 46 48 53 56 56 68 68 66 63 65 56 58 73 81 81 80 82 82 86 91
24 27 27 26 25 24 24 24 26 28 30 30 30 29 29 29 32 34 34 33 34 38 43 49 54 58 54 63 71 74 78 77 73 62 73 75 69 66 60 65 68 73 75
30 29 27 26 26 26 26 28 29 30 31 30 28 28 27 28 31 34 37 38 39 43 49 50 56 60 63 67 69 73 81 79 79 86 81 73 63 54 50 49 54 54 57
32 30 28 28 28 28 29 30 31 32 29 27 26 27 29 31 32 34 36 36 40 45 46 50 55 66 66 68 64 64 63 67 77 75 74 71 67 60 55 57 52 48 49
34 33 32 31 30 32 33 33 32 29 27 26 26 27 29 30 34 35 35 38 44 46 48 54 65 68 68 67 65 65 66 68 65 64 65 66 66 64 62 59 55 51 44
38 38 37 36 36 34 33 34 32 30 28 26 25 28 30 32 33 34 36 43 48 49 57 65 66 68 68 69 68 67 67 64 59 60 53 59 60 58 58 58 59 57 53
40 41 43 41 37 37 37 35 33 31 30 29 28 28 28 30 31 33 39 47 51 59 68 67 67 68 68 68 67 65 62 55 53 48 55 56 55 57 58 57 61 61 61
44 47 47 44 41 40 38 35 34 34 33 30 28 27 27 29 30 36 42 46 55 60 64 64 68 69 69 67 65 63 59 53 47 51 55 57 58 59 58 59 58 56 50
49 51 49 46 44 42 39 38 35 33 31 31 30 27 29 30 32 37 43 50 55 59 61 64 65 64 64 64 64 62 60 58 55 58 54 54 57 60 61 61 58 47 49
52 52 53 51 47 43 40 37 35 32 28 29 28 29 30 33 35 40 47 51 54 57 57 59 60 61 62 61 61 61 63 62 62 58 57 55 56 58 59 60 59 49 48
55 56 56 52 49 44 40 36 33 30 27 28 28 30 31 34 36 43 50 52 52 53 55 56 58 60 60 61 61 62 63 62 59 59 58 55 53 54 56 57 56 50 47
59 58 56 54 49 44 39 34 31 29 29 30 31 32 33 35 38 43 49 52 55 56 56 55 56 58 59 60 60 60 61 61 59 59 57 55 52 52 54 54 52 49 45
61 60 57 53 48 43 38 34 31 30 30 32 34 34 36 38 41 44 48 52 54 57 60 60 58 57 57 58 60 61 62 61 59 58 57 54 51 48 51 52 48 47 40
59 57 54 51 45 39 36 35 33 30 33 34 34 34 38 42 46 49 51 52 56 60 62 61 59 57 56 56 57 61 61 61 58 56 54 52 49 48 46 46 44 42 38
55 53 49 45 42 41 39 36 35 33 34 34 33 34 38 43 46 49 52 55 58 60 62 64 62 58 56 57 59 61 60 59 57 54 52 50 47 44 43 44 42 39 35
49 47 46 44 43 41 40 37 34 33 34 33 33 35 39 43 47 51 55 59 62 62 61 61 62 60 55 56 57 59 60 58 55 52 50 47 42 42 43 42 40 37 32
41 42 43 43 43 40 37 34 33 34 33 32 33 36 41 46 50 54 59 63 64 62 59 60 60 60 59 58 58 58 57 55 53 48 44 41 40 41 41 39 36 33 29
37 39 41 40 38 37 36 35 33 32 31 31 34 39 44 50 54 59 61 61 60 60 58 58 58 59 58 58 58 56 55 51 49 45 41 36 37 40 39 38 34 30 25
37 38 38 38 38 37 35 33 32 30 29 31 36 42 47 53 56 57 59 58 58 58 58 58 57 55 55 55 53 53 51 48 45 40 33 31 39 41 37 34 31 27 23
Wind_Direction_500mb
201 205 205 223 248 304 318 322 326 331 336 336 338 341 342 343 342 343 344 343 342 340 337 335 333 331 330 329 328 325 320 315 308 311 315 320 321 322 322 323 323 322 320
226 219 204 210 236 267 314 327 335 334 333 333 338 339 338 339 341 343 342 339 339 338 337 336 339 341 340 338 335 331 324 320 314 313 320 324 324 324 324 322 322 316 317
203 208 214 222 265 308 323 325 323 324 328 331 330 327 333 339 342 339 339 342 344 343 345 347 344 344 345 344 341 333 328 323 321 317 318 325 322 325 324 323 319 316 315
207 210 218 249 288 309 314 315 318 320 320 319 320 327 330 333 335 338 342 346 345 346 345 344 348 350 349 346 341 336 330 323 321 316 315 317 319 322 319 320 318 317 315
209 213 234 271 300 305 305 308 308 310 312 314 318 321 325 328 333 340 343 340 342 342 343 345 345 343 343 341 339 333 329 325 321 320 317 317 318 320 319 317 314 312 310
214 226 253 283 292 295 297 299 301 300 304 312 316 316 321 325 332 333 335 340 340 342 339 340 341 340 338 336 332 329 326 324 321 319 316 315 315 316 316 314 312 314 308
222 238 267 282 285 287 286 287 292 301 308 310 312 315 316 318 321 327 336 338 337 332 334 337 337 336 335 334 330 325 324 322 317 316 315 316 314 314 312 309 308 304 302
233 256 270 273 278 280 283 289 297 302 306 307 307 306 307 312 321 329 334 331 326 328 333 333 330 334 334 333 327 326 326 326 326 323 315 308 311 312 310 308 309 307 303
246 257 266 272 277 282 289 293 296 300 300 299 299 302 306 314 322 328 325 323 326 327 329 330 328 331 333 331 330 328 329 329 328 321 319 319 317 316 317 315 312 313 311
251 260 266 274 279 283 287 289 292 294 295 296 298 301 307 317 321 319 324 329 327 326 328 326 327 329 330 333 332 330 327 330 326 325 324 324 328 326 323 323 322 317 315
258 264 267 271 274 278 281 284 288 288 290 295 299 307 314 315 314 316 321 325 324 326 328 325 328 328 331 332 331 330 326 322 325 324 325 329 333 334 336 335 335 331 325
267 266 264 268 272 275 276 278 280 286 292 295 299 302 307 310 311 315 321 322 324 328 324 327 328 330 330 332 332 331 329 327 327 330 331 332 334 336 337 337 337 337 334
268 263 265 267 268 273 278 280 284 287 288 289 295 300 302 305 309 316 318 322 326 326 326 332 329 330 332 333 332 331 330 332 334 333 330 329 333 334 335 336 335 335 331
264 262 265 267 271 275 275 277 282 285 287 291 293 294 297 303 309 314 320 325 327 328 330 331 332 331 330 329 331 334 338 338 335 329 327 330 331 335 338 338 335 334 331
266 264 265 267 270 273 274 279 282 285 287 289 291 293 296 301 307 316 321 324 327 328 328 330 331 331 331 333 336 338 342 340 335 331 333 332 332 335 337 338 336 333 329
268 266 267 269 270 271 274 278 281 282 284 290 293 294 298 299 306 312 318 324 327 329 332 332 330 329 331 333 337 339 342 341 337 335 333 333 331 333 333 335 336 332 327
274 269 267 267 269 270 272 273 275 275 275 282 288 290 293 297 306 315 320 324 326 330 330 327 326 328 330 333 335 338 338 339 336 336 333 333 333 332 333 334 335 331 328
273 269 267 268 266 265 266 266 265 268 275 277 277 280 287 296 308 314 317 321 324 325 325 325 325 326 329 331 333 334 334 335 334 334 333 333 333 333 334 334 334 330 327
272 270 268 265 263 261 261 260 259 261 264 268 274 279 288 297 306 311 315 319 321 322 323 326 323 322 324 325 328 331 331 332 333 333 332 332 333 333 334 334 333 332 330
271 270 265 262 259 257 256 253 251 253 258 268 272 276 285 295 304 311 315 318 320 322 323 320 318 318 318 321 326 328 328 329 331 330 330 331 331 331 331 331 332 329 329
269 265 260 256 255 256 251 247 246 250 264 267 269 277 288 300 308 313 316 319 319 319 316 313 313 313 316 320 323 323 323 325 326 326 327 328 328 328 330 330 330 328 327
267 262 258 256 253 251 245 241 241 259 263 266 273 283 295 303 309 314 317 318 316 315 312 309 309 311 313 316 318 318 318 320 321 322 323 324 326 328 328 328 329 328 328
265 259 254 251 249 244 239 239 248 257 262 268 277 288 297 306 312 315 315 315 313 311 307 305 304 306 307 309 310 311 313 316 316 317 318 320 322 326 327 325 326 325 325
257 251 248 245 241 238 237 243 252 256 260 269 282 294 304 309 312 314 314 313 311 309 308 307 306 305 305 304 303 305 307 310 310 313 312 315 317 320 322 320 320 319 318
255 248 245 241 237 235 238 246 250 255 264 277 290 301 307 311 314 315 315 312 311 312 313 313 312 311 308 301 298 299 301 305 306 308 307 304 308 314 311 315 313 312 311
250 244 237 234 233 234 241 244 248 256 270 286 297 304 310 313 315 315 312 313 317 319 321 323 322 318 313 306 298 295 298 302 303 303 303 307 305 305 303 305 305 302 301
Wind_Speed_850mb
16 9 6 4 3 6 10 15 20 24 25 26 27 28 29 31 33 34 34 34 35 36 38 39 40 41 42 42 43 45 47 51 67 88 84 86 85 88 87 85 86 82 85
28 21 10 7 10 10 14 20 23 26 26 27 29 31 31 31 30 30 31 32 33 34 35 36 38 40 42 44 45 44 45 46 54 85 84 91 85 85 91 86 79 71 73
21 16 16 13 9 13 19 24 24 24 25 27 28 28 27 27 28 29 30 32 34 34 35 37 39 41 41 41 42 41 41 45 53 67 90 94 85 95 94 93 85 79 80
23 18 15 11 13 17 21 22 24 25 25 25 25 25 24 25 26 28 30 32 31 32 33 35 37 40 42 46 43 41 43 50 55 66 77 84 82 85 77 88 100 88 88
22 20 16 14 15 20 22 23 23 23 24 23 23 24 25 26 26 30 31 30 29 30 31 34 36 40 46 51 49 49 51 56 63 65 74 84 82 85 82 92 92 98 103
24 21 15 16 20 22 23 22 21 22 22 23 25 26 27 28 30 30 30 30 30 32 33 37 43 47 52 56 55 53 57 60 60 64 75 78 85 88 92 91 95 102 77
25 19 18 21 24 24 22 21 22 22 24 25 27 28 30 30 30 30 30 30 30 33 39 45 47 48 55 58 54 60 59 51 50 59 67 71 87 89 95 100 98 96 104
24 20 24 26 24 23 22 23 23 24 26 28 30 30 30 30 32 32 32 30 31 36 40 46 48 53 56 56 68 68 66 63 65 56 58 73 81 81 80 82 82 86 91
24 27 27 26 25 24 24 24 26 28 30 30 30 29 29 29 32 34 34 33 34 38 43 49 54 58 54 63 71 74 78 77 73 62 73 75 69 66 60 65 68 73 75
30 29 27 26 26 26 26 28 29 30 31 30 28 28 27 28 31 34 37 38 39 43 49 50 56 60 63 67 69 73 81 79 79 86 81 73 63 54 50 49 54 54 57
32 30 28 28 28 28 29 30 31 32 29 27 26 27 29 31 32 34 36 36 40 45 46 50 55 66 66 68 64 64 63 67 77 75 74 71 67 60 55 57 52 48 49
34 33 32 31 30 32 33 33 32 29 27 26 26 27 29 30 34 35 35 38 44 46 48 54 65 68 68 67 65 65 66 68 65 64 65 66 66 64 62 59 55 51 44
38 38 37 36 36 34 33 34 32 30 28 26 25 28 30 32 33 34 36 43 48 49 57 65 66 68 68 69 68 67 67 64 59 60 53 59 60 58 58 58 59 57 53
40 41 43 41 37 37 37 35 33 31 30 29 28 28 28 30 31 33 39 47 51 59 68 67 67 68 68 68 67 65 62 55 53 48 55 56 55 57 58 57 61 61 61
44 47 47 44 41 40 38 35 34 34 33 30 28 27 27 29 30 36 42 46 55 60 64 64 68 69 69 67 65 63 59 53 47 51 55 57 58 59 58 59 58 56 50
49 51 49 46 44 42 39 38 35 33 31 31 30 27 29 30 32 37 43 50 55 59 61 64 65 64 64 64 64 62 60 58 55 58 54 54 57 60 61 61 58 47 49
52 52 53 51 47 43 40 37 35 32 28 29 28 29 30 33 35 40 47 51 54 57 57 59 60 61 62 61 61 61 63 62 62 58 57 55 56 58 59 60 59 49 48
55 56 56 52 49 44 40 36 33 30 27 28 28 30 31 34 36 43 50 52 52 53 55 56 58 60 60 61 61 62 63 62 59 59 58 55 53 54 56 57 56 50 47
59 58 56 54 49 44 39 34 31 29 29 30 31 32 33 35 38 43 49 52 55 56 56 55 56 58 59 60 60 60 61 61 59 59 57 55 52 52 54 54 52 49 45
61 60 57 53 48 43 38 34 31 30 30 32 34 34 36 38 41 44 48 52 54 57 60 60 58 57 57 58 60 61 62 61 59 58 57 54 51 48 51 52 48 47 40
59 57 54 51 45 39 36 35 33 30 33 34 34 34 38 42 46 49 51 52 56 60 62 61 59 57 56 56 57 61 61 61 58 56 54 52 49 48 46 46 44 42 38
55 53 49 45 42 41 39 36 35 33 34 34 33 34 38 43 46 49 52 55 58 60 62 64 62 58 56 57 59 61 60 59 57 54 52 50 47 44 43 44 42 39 35
49 47 46 44 43 41 40 37 34 33 34 33 33 35 39 43 47 51 55 59 62 62 61 61 62 60 55 56 57 59 60 58 55 52 50 47 42 42 43 42 40 37 32
41 42 43 43 43 40 37 34 33 34 33 32 33 36 41 46 50 54 59 63 64 62 59 60 60 60 59 58 58 58 57 55 53 48 44 41 40 41 41 39 36 33 29
37 39 41 40 38 37 36 35 33 32 31 31 34 39 44 50 54 59 61 61 60 60 58 58 58 59 58 58 58 56 55 51 49 45 41 36 37 40 39 38 34 30 25
37 38 38 38 38 37 35 33 32 30 29 31 36 42 47 53 56 57 59 58 58 58 58 58 57 55 55 55 53 53 51 48 45 40 33 31 39 41 37 34 31 27 23
Wind_Direction_850mb
201 205 205 223 248 304 318 322 326 331 336 336 338 341 342 343 342 343 344 343 342 340 337 335 333 331 330 329 328 325 320 315 308 311 315 320 321 322 322 323 323 322 320
226 219 204 210 236 267 314 327 335 334 333 333 338 339 338 339 341 343 342 339 339 338 337 336 339 341 340 338 335 331 324 320 314 313 320 324 324 324 324 322 322 316 317
203 208 214 222 265 308 323 325 323 324 328 331 330 327 333 339 342 339 339 342 344 343 345 347 344 344 345 344 341 333 328 323 321 317 318 325 322 325 324 323 319 316 315
207 210 218 249 288 309 314 315 318 320 320 319 320 327 330 333 335 338 342 346 345 346 345 344 348 350 349 346 341 336 330 323 321 316 315 317 319 322 319 320 318 317 315
209 213 234 271 300 305 305 308 308 310 312 314 318 321 325 328 333 340 343 340 342 342 343 345 345 343 343 341 339 333 329 325 321 320 317 317 318 320 319 317 314 312 310
214 226 253 283 292 295 297 299 301 300 304 312 316 316 321 325 332 333 335 340 340 342 339 340 341 340 338 336 332 329 326 324 321 319 316 315 315 316 316 314 312 314 308
222 238 267 282 285 287 286 287 292 301 308 310 312 315 316 318 321 327 336 338 337 332 334 337 337 336 335 334 330 325 324 322 317 316 315 316 314 314 312 309 308 304 302
233 256 270 273 278 280 283 289 297 302 306 307 307 306 307 312 321 329 334 331 326 328 333 333 330 334 334 333 327 326 326 326 326 323 315 308 311 312 310 308 309 307 303
246 257 266 272 277 282 289 293 296 300 300 299 299 302 306 314 322 328 325 323 326 327 329 330 328 331 333 331 330 328 329 329 328 321 319 319 317 316 317 315 312 313 311
251 260 266 274 279 283 287 289 292 294 295 296 298 301 307 317 321 319 324 329 327 326 328 326 327 329 330 333 332 330 327 330 326 325 324 324 328 326 323 323 322 317 315
258 264 267 271 274 278 281 284 288 288 290 295 299 307 314 315 314 316 321 325 324 326 328 325 328 328 331 332 331 330 326 322 325 324 325 329 333 334 336 335 335 331 325
267 266 264 268 272 275 276 278 280 286 292 295 299 302 307 310 311 315 321 322 324 328 324 327 328 330 330 332 332 331 329 327 327 330 331 332 334 336 337 337 337 337 334
268 263 265 267 268 273 278 280 284 287 288 289 295 300 302 305 309 316 318 322 326 326 326 332 329 330 332 333 332 331 330 332 334 333 330 329 333 334 335 336 335 335 331
264 262 265 267 271 275 275 277 282 285 287 291 293 294 297 303 309 314 320 325 327 328 330 331 332 331 330 329 331 334 338 338 335 329 327 330 331 335 338 338 335 334 331
266 264 265 267 270 273 274 279 282 285 287 289 291 293 296 301 307 316 321 324 327 328 328 330 331 331 331 333 336 338 342 340 335 331 333 332 332 335 337 338 336 333 329
268 266 267 269 270 271 274 278 281 282 284 290 293 294 298 299 306 312 318 324 327 329 332 332 330 329 331 333 337 339 342 341 337 335 333 333 331 333 333 335 336 332 327
274 269 267 267 269 270 272 273 275 275 275 282 288 290 293 297 306 315 320 324 326 330 330 327 326 328 330 333 335 338 338 339 336 336 333 333 333 332 333 334 335 331 328
273 269 267 268 266 265 266 266 265 268 275 277 277 280 287 296 308 314 317 321 324 325 325 325 325 326 329 331 333 334 334 335 334 334 333 333 333 333 334 334 334 330 327
272 270 268 265 263 261 261 260 259 261 264 268 274 279 288 297 306 311 315 319 321 322 323 326 323 322 324 325 328 331 331 332 333 333 332 332 333 333 334 334 333 332 330
271 270 265 262 259 257 256 253 251 253 258 268 272 276 285 295 304 311 315 318 320 322 323 320 318 318 318 321 326 328 328 329 331 330 330 331 331 331 331 331 332 329 329
269 265 260 256 255 256 251 247 246 250 264 267 269 277 288 300 308 313 316 319 319 319 316 313 313 313 316 320 323 323 323 325 326 326 327 328 328 328 330 330 330 328 327
267 262 258 256 253 251 245 241 241 259 263 266 273 283 295 303 309 314 317 318 316 315 312 309 309 311 313 316 318 318 318 320 321 322 323 324 326 328 328 328 329 328 328
265 259 254 251 249 244 239 239 248 257 262 268 277 288 297 306 312 315 315 315 313 311 307 305 304 306 307 309 310 311 313 316 316 317 318 320 322 326 327 325 326 325 325
257 251 248 245 241 238 237 243 252 256 260 269 282 294 304 309 312 314 314 313 311 309 308 307 306 305 305 304 303 305 307 310 310 313 312 315 317 320 322 320 320 319 318
255 248 245 241 237 235 238 246 250 255 264 277 290 301 307 311 314 315 315 312 311 312 313 313 312 311 308 301 298 299 301 305 306 308 307 304 308 314 311 315 313 312 311
250 244 237 234 233 234 241 244 248 256 270 286 297 304 310 313 315 315 312 313 317 319 321 323 322 318 313 306 298 295 298 302 303 303 303 307 305 305 303 305 305 302 301